Flag for U.S.A. Weather past 2 weeks in Louisville, Kentucky, U.S.A.

45 °F

Mostly cloudy.

Feels Like: 41 °F
Forecast: 45 / 55 °F
Wind: 7 mph from East

Location: Standiford Field

Current Time: Nov 30, 2015 at 2:19:48 AM

Latest Report: Nov 30, 2015 at 1:56 AM

Visibility: 10 mi

Pressure: 30.13 "Hg

Humidity: 80%

Dew point: 39 °F

Location of LouisvilleLocation

Historic Weather in Louisville — Graph


Louisville temperature yesterday

Maximum temperature yesterday: 48 °F (at 2:56 PM)
Minimum temperature yesterday: 44 °F (at 7:56 AM)
Average temperature yesterday: 46 °F

Past Weeks' High & Low Weather Summary

High69 °F (Nov 26, 1:56 PM)97% (Nov 18, 12:56 PM)30.53 "Hg (Nov 18, 12:56 PM)
Low27 °F (Nov 23, 1:56 AM)22% (Nov 20, 1:56 PM)29.60 "Hg (Nov 18, 2:56 PM)
Average50 °F62%30.21 "Hg
* Reported Nov 14 11:56 PM — Nov 29 11:56 PM, Louisville, Weather by CustomWeather, © 2015

Note: Actual official high and low records may vary slightly from our data, if they occured in-between our weather recording intervals... More about our weather records


Louisville weather history for previous 24 hours

Time TempWeatherWind HumidityBarometerVisibility
11:56 PM
Sun, Nov 29
46 °FMostly cloudy.9 mph77%30.13 "Hg10 mi
10:56 PM46 °FMostly cloudy.10 mph79%30.16 "Hg10 mi
9:56 PM45 °FLight rain. Mostly cloudy.8 mph82%30.14 "Hg9 mi
8:56 PM46 °FLight rain. Mostly cloudy.9 mph83%30.18 "Hg9 mi
7:56 PM47 °FLight rain. Mostly cloudy.6 mph86%30.18 "Hg7 mi
6:56 PM47 °FLight rain. Overcast.9 mph86%30.17 "Hg8 mi
5:56 PM47 °FOvercast.9 mph83%30.16 "Hg9 mi
4:56 PM48 °FLight rain. Overcast.8 mph83%30.17 "Hg7 mi
3:56 PM48 °FOvercast.10 mph83%30.15 "Hg8 mi
2:56 PM48 °FOvercast.6 mph83%30.15 "Hg7 mi
1:56 PM47 °FLow clouds.10 mph86%30.17 "Hg8 mi
12:56 PM47 °FLow clouds.9 mph86%30.20 "Hg7 mi
11:56 AM46 °FFog.8 mph86%30.21 "Hg6 mi
10:56 AM44 °FFog.9 mph93%30.25 "Hg2 mi
9:56 AM44 °FLow clouds.13 mph89%30.25 "Hg7 mi
8:56 AM44 °FLow clouds.13 mph89%30.25 "Hg9 mi
7:56 AM44 °FLow clouds.8 mph93%30.22 "Hg10 mi
7:04 AM45 °FMostly cloudy.8 mph90%30.19 "Hg9 mi
5:56 AM45 °FDrizzle. Fog.5 mph93%30.22 "Hg5 mi
4:56 AM45 °FMostly cloudy.8 mph93%30.21 "Hg10 mi
3:56 AM45 °FDrizzle. Fog.9 mph93%30.22 "Hg4 mi
3:00 AM45 °FDrizzle. Fog.10 mph93%30.22 "Hg2 mi
Weather by CustomWeather, © 2015

See weather overviewHow to use our weather pages